DW5678 Weather Reports


time (UTC)temp
C
wind
direction
speed
KPH
gust
KPH
rain 1hr
cm
rain 24hr
cm
rain mn
cm
humidity
%
barometer
mb
20260506152804 18 219 1.6 4.8 0.00 0.00 0.00 76 1016.1
20260506151804 18 219 1.6 8.0 0.00 0.00 0.00 77 1016.1
20260506150804 17 223 1.6 8.0 0.00 0.00 0.00 80 1016.2
20260506145804 17 209 3.2 9.7 0.00 0.00 0.00 78 1016.1
20260506144804 17 134 4.8 9.7 0.00 0.00 0.00 77 1016.1
20260506143804 17 153 1.6 8.0 0.00 0.00 0.00 77 1016.2
20260506142805 18 153 4.8 9.7 0.00 0.00 0.00 76 1016.2
20260506141804 17 153 3.2 11.3 0.00 0.00 0.00 77 1016.2
20260506135804 17 227 3.2 9.7 0.00 0.00 0.00 73 1016.1
20260506133804 17 196 3.2 11.3 0.00 0.00 0.00 77 1016.2
20260506132804 17 218 8.0 9.7 0.00 0.00 0.00 77 1016.3
20260506131805 17 208 3.2 11.3 0.00 0.00 0.00 78 1016.4
20260506125804 18 219 3.2 11.3 0.00 0.00 0.00 75 1016.4
20260506124805 18 199 3.2 11.3 0.00 0.00 0.00 77 1016.4
20260506123804 18 219 4.8 11.3 0.00 0.00 0.00 78 1016.5
20260506122805 18 187 3.2 9.7 0.00 0.00 0.00 75 1016.6
20260506121804 18 215 3.2 11.3 0.00 0.00 0.00 77 1016.6
20260506120804 18 229 4.8 12.9 0.00 0.00 0.00 74 1016.7
20260506115804 18 206 4.8 11.3 0.00 0.00 0.00 73 1016.7
20260506114804 18 206 3.2 11.3 0.00 0.00 0.00 75 1016.7
20260506111805 18 223 4.8 9.7 0.00 0.00 0.00 76 1017.2
20260506110804 18 228 3.2 9.7 0.00 0.00 0.00 71 1017.2
20260506104804 17 185 4.8 14.5 0.00 0.00 0.00 70 1017.3
20260506102805 18 150 3.2 9.7 0.00 0.00 0.00 62 1017.4
20260506101804 18 217 1.6 11.3 0.00 0.00 0.00 62 1017.4
20260506100804 18 193 3.2 11.3 0.00 0.00 0.00 63 1017.5
20260506095804 18 200 3.2 8.0 0.00 0.00 0.00 63 1017.5
20260506094804 19 200 1.6 9.7 0.00 0.00 0.00 62 1017.5
20260506093805 19 191 1.6 4.8 0.00 0.00 0.00 60 1017.5
20260506092804 18 191 3.2 4.8 0.00 0.00 0.00 61 1017.5
20260506091804 18 191 1.6 8.0 0.00 0.00 0.00 61 1017.5
20260506090805 18 191 1.6 8.0 0.00 0.00 0.00 61 1017.5
20260506084804 17 214 1.6 8.0 0.00 0.00 0.00 65 1017.5
20260506083805 18 216 1.6 8.0 0.00 0.00 0.00 62 1017.4
20260506082804 17 159 3.2 9.7 0.00 0.00 0.00 62 1017.4
20260506081804 17 161 1.6 8.0 0.00 0.00 0.00 64 1017.4
20260506080804 17 207 4.8 11.3 0.00 0.00 0.00 65 1017.4
20260506072804 16 169 3.2 8.0 0.00 0.00 0.00 68 1017.2
20260506071804 16 182 3.2 8.0 0.00 0.00 0.00 69 1017.1
20260506070804 15 173 4.8 9.7 0.00 0.00 0.00 69 1017.2
20260506061804 15 139 1.6 4.8 0.00 0.00 0.00 73 1017.3
20260506060804 15 139 1.6 4.8 0.00 0.00 0.00 72 1017.3
20260506050804 14 92 0.0 4.8 0.00 0.00 0.00 76 1017.3
20260506044805 13 36 0.0 1.6 0.00 0.00 0.00 77 1017.0
20260506043804 13 26 0.0 4.8 0.00 0.00 0.00 77 1017.0
20260506042804 13 26 0.0 4.8 0.00 0.00 0.00 77 1016.9
20260506041804 13 26 1.6 4.8 0.00 0.00 0.00 76 1016.8
20260506040804 13 26 0.0 0.0 0.00 0.00 0.00 76 1016.8
20260506035804 13 26 0.0 3.2 0.00 0.00 0.00 77 1016.7
20260506034804 13 26 0.0 1.6 0.00 0.00 0.00 75 1016.6
20260506033804 13 26 0.0 0.0 0.00 0.00 0.00 73 1016.4
20260506032804 13 26 0.0 0.0 0.00 0.00 0.00 73 1016.3
20260506031804 13 26 0.0 0.0 0.00 0.00 0.00 73 1016.2
20260506030804 13 26 0.0 0.0 0.00 0.00 0.00 72 1016.1
20260506025804 13 26 0.0 1.6 0.00 0.00 0.00 72 1016.1
20260506024804 13 26 1.6 3.2 0.00 0.00 0.00 71 1016.0
20260506023804 13 26 0.0 3.2 0.00 0.00 0.00 71 1016.0
20260506022804 13 26 0.0 0.0 0.00 0.00 0.00 70 1016.0
20260506021804 13 26 0.0 0.0 0.00 0.00 0.00 70 1016.0
20260506020804 13 26 0.0 0.0 0.00 0.00 0.00 69 1016.0
20260506015804 13 26 0.0 3.2 0.00 0.00 0.00 69 1016.0
20260506014804 13 26 0.0 3.2 0.00 0.00 0.00 70 1016.0
20260506013804 13 26 0.0 1.6 0.00 0.00 0.00 69 1016.1
20260506012804 14 26 0.0 3.2 0.00 0.00 0.00 67 1015.9
20260506011804 13 26 0.0 3.2 0.00 0.00 0.00 68 1016.0
20260506010804 13 26 0.0 4.8 0.00 0.00 0.00 69 1016.0
20260506005804 14 26 0.0 0.0 0.00 0.00 0.00 70 1016.0
20260506004805 14 26 0.0 0.0 0.00 0.00 0.00 68 1016.1
20260506003805 14 26 0.0 1.6 0.00 0.00 0.00 66 1016.0
20260506002805 15 26 0.0 3.2 0.00 0.00 0.00 64 1016.0
20260506001804 15 26 1.6 3.2 0.00 0.00 0.00 62 1015.9
20260506000804 15 26 0.0 0.0 0.00 0.00 0.00 63 1015.9
20260505234804 15 26 0.0 0.0 0.00 0.00 0.00 64 1015.9
20260505231804 16 26 0.0 3.2 0.00 0.00 0.00 58 1016.1
20260505223804 15 26 0.0 0.0 0.00 0.00 0.00 64 1016.4
20260505222805 15 26 0.0 0.0 0.00 0.00 0.00 66 1016.5
20260505221804 15 26 0.0 0.0 0.00 0.00 0.00 66 1016.5
20260505220804 15 26 0.0 0.0 0.00 0.00 0.00 68 1016.5
20260505215804 15 26 0.0 0.0 0.00 0.00 0.00 69 1016.6
20260505214804 15 26 0.0 0.0 0.00 0.00 0.00 68 1016.6
20260505213804 15 26 0.0 0.0 0.00 0.00 0.00 69 1016.6
20260505211804 15 26 0.0 0.0 0.00 0.00 0.00 71 1016.7
20260505205804 15 26 0.0 0.0 0.00 0.00 0.00 72 1016.8
20260505204804 15 26 0.0 0.0 0.00 0.00 0.00 72 1016.8
20260505202804 15 26 0.0 0.0 0.00 0.00 0.00 72 1016.9
20260505201804 15 26 1.6 1.6 0.00 0.00 0.00 71 1016.8
20260505200804 15 26 0.0 1.6 0.00 0.00 0.00 69 1016.8
20260505195804 15 26 1.6 3.2 0.00 0.00 0.00 66 1016.7
20260505194804 16 26 0.0 0.0 0.00 0.00 0.00 66 1016.7
20260505193804 16 26 0.0 0.0 0.00 0.00 0.00 65 1016.7
20260505192804 16 26 1.6 8.0 0.00 0.00 0.00 65 1016.7
20260505191804 16 26 0.0 3.2 0.00 0.00 0.00 66 1016.7
20260505184803 16 29 4.8 11.3 0.00 0.00 0.00 66 1016.4
20260505183804 16 30 9.7 11.3 0.00 0.00 0.00 65 1016.4
20260505182804 16 33 8.0 11.3 0.00 0.00 0.00 65 1016.3
20260505181804 16 29 4.8 9.7 0.00 0.00 0.00 64 1016.2
20260505180805 16 48 1.6 8.0 0.00 0.00 0.00 62 1016.0
20260505175804 16 48 1.6 3.2 0.00 0.00 0.00 61 1016.0
20260505174804 16 49 1.6 4.8 0.00 0.00 0.00 61 1015.9
20260505173804 17 254 0.0 3.2 0.00 0.00 0.00 60 1015.9
20260505172804 17 254 0.0 1.6 0.00 0.00 0.00 59 1015.9
20260505171804 17 254 0.0 1.6 0.00 0.00 0.00 59 1015.8
20260505170804 17 254 0.0 4.8 0.00 0.00 0.00 58 1015.8
20260505165804 17 254 0.0 1.6 0.00 0.00 0.00 57 1015.8
20260505164804 17 254 0.0 3.2 0.00 0.00 0.00 57 1015.9
20260505163804 17 254 0.0 1.6 0.00 0.00 0.00 55 1015.9
20260505162804 17 254 0.0 3.2 0.00 0.00 0.00 56 1015.9
20260505161803 17 253 1.6 3.2 0.00 0.00 0.00 56 1015.8